GW2584 Weather Reports


time (UTC)temp
F
wind
direction
speed
knots
gust
knots
rain 1hr
in
rain 24hr
in
rain mn
in
humidity
%
barometer
mb
20260508144557 53 154 0.0 1.7 0.00 0.27 0.00 55 1018.1
20260508143116 50 187 0.9 2.6 0.00 0.27 0.00 62 1018.5
20260508141605 49 267 0.9 2.6 0.00 0.27 0.00 65 1018.7
20260508140115 49 0 0.0 0.9 0.00 0.27 0.00 67 1018.7
20260508134556 48 271 0.9 3.5 0.00 0.27 0.00 69 1018.9
20260508133102 47 273 0.0 2.6 0.00 0.27 0.00 71 1018.8
20260508131556 46 0 0.0 4.3 0.00 0.27 0.00 74 1018.9
20260508130057 43 214 0.9 7.0 0.00 0.27 0.00 83 1019.0
20260508124558 41 181 0.0 1.7 0.00 0.27 0.00 88 1019.2
20260508123054 39 0 0.0 0.9 0.00 0.27 0.00 87 1019.2
20260508121554 39 0 0.0 0.0 0.00 0.27 0.00 85 1019.2
20260508120112 39 0 0.0 0.9 0.00 0.27 0.00 85 1018.5
20260508114602 39 0 0.0 2.6 0.00 0.27 0.00 86 1017.8
20260508113109 38 0 0.0 1.7 0.00 0.27 0.00 86 1017.6
20260508111553 40 0 0.0 0.9 0.00 0.27 0.00 85 1017.6
20260508110103 39 0 0.0 0.0 0.00 0.27 0.00 84 1017.9
20260508104557 39 0 0.0 0.9 0.00 0.27 0.00 82 1017.8
20260508103100 42 117 0.0 2.6 0.00 0.27 0.00 72 1017.4
20260508101602 43 250 0.9 6.1 0.00 0.27 0.00 71 1016.7
20260508100129 40 240 0.9 2.6 0.00 0.27 0.00 81 1016.7
20260508094556 41 0 0.0 2.6 0.00 0.27 0.00 81 1016.5
20260508093056 41 235 0.9 6.1 0.00 0.27 0.00 82 1016.8
20260508091610 40 0 0.0 0.0 0.00 0.27 0.00 83 1016.5
20260508090056 41 248 0.0 0.9 0.00 0.27 0.00 83 1016.8
20260508084556 41 0 0.0 0.0 0.00 0.27 0.00 81 1017.0
20260508083056 41 0 0.0 1.7 0.00 0.27 0.00 80 1017.3
20260508081612 41 0 0.0 0.0 0.00 0.27 0.00 79 1017.4
20260508080100 42 0 0.0 0.9 0.00 0.27 0.00 77 1017.6
20260508074559 43 0 0.0 1.7 0.00 0.27 0.00 75 1017.7
20260508073106 42 0 0.0 0.9 0.00 0.27 0.00 75 1018.2
20260508071557 42 0 0.0 0.9 0.00 0.27 0.00 74 1017.8
20260508070056 43 0 0.9 2.6 0.00 0.27 0.00 72 1017.6
20260508064556 43 237 1.7 4.3 0.00 0.27 0.00 73 1017.4
20260508063101 42 0 0.0 0.9 0.00 0.27 0.00 74 1017.4
20260508061559 43 0 0.0 0.9 0.00 0.27 0.00 73 1017.6
20260508060111 45 0 1.7 5.2 0.00 0.27 0.00 68 1017.4
20260508054639 44 208 1.7 3.5 0.00 0.27 0.27 75 1017.5
20260508053055 44 212 1.7 4.3 0.00 0.27 0.27 76 1017.9
20260508051557 45 0 0.0 3.5 0.00 0.27 0.27 68 1018.4
20260508050059 46 0 0.0 3.5 0.00 0.27 0.27 67 1017.7
20260508044554 46 0 0.0 2.6 0.00 0.27 0.27 66 1017.6
20260508043059 46 29 0.0 5.2 0.00 0.27 0.27 63 1017.4
20260508041555 47 0 0.0 0.9 0.00 0.27 0.27 63 1017.2
20260508040058 47 203 0.0 0.9 0.00 0.27 0.27 64 1017.7
20260508034559 49 345 0.0 4.3 0.00 0.27 0.27 56 1018.0
20260508033055 49 0 0.0 1.7 0.00 0.27 0.27 52 1016.9
20260508031601 50 246 0.0 4.3 0.00 0.27 0.27 50 1016.5
20260508030104 50 0 0.0 3.5 0.00 0.27 0.27 52 1016.5
20260508024609 51 0 1.7 9.6 0.00 0.27 0.27 50 1016.5
20260508023057 49 207 4.3 11.3 0.00 0.27 0.27 56 1016.4
20260508021555 50 195 6.1 11.3 0.00 0.27 0.27 54 1016.4
20260508020105 52 135 4.3 12.2 0.00 0.27 0.27 47 1016.5
20260508014620 54 254 6.1 14.8 0.00 0.27 0.27 42 1016.5
20260508013101 55 219 0.9 2.6 0.00 0.27 0.27 38 1015.9
20260508011606 56 0 0.9 4.3 0.00 0.27 0.27 36 1015.9
20260508004557 57 0 0.0 0.0 0.00 0.27 0.27 36 1015.6
20260508003055 58 41 0.0 1.7 0.00 0.27 0.27 35 1015.3
20260508001601 58 0 0.0 6.1 0.00 0.27 0.27 31 1015.1
20260508000056 58 103 0.0 2.6 0.00 0.27 0.27 31 1015.1
20260507234553 57 68 0.0 0.9 0.00 0.27 0.27 32 1015.1
20260507233058 56 225 0.9 2.6 0.00 0.27 0.27 34 1015.3
20260507231555 56 0 1.7 3.5 0.00 0.27 0.27 32 1015.1
20260507230056 56 0 0.0 1.7 0.00 0.27 0.27 32 1015.4
20260507224604 56 0 0.0 3.5 0.00 0.27 0.27 34 1015.4
20260507223055 56 0 0.0 0.9 0.00 0.27 0.27 33 1015.4
20260507221558 57 0 1.7 3.5 0.00 0.27 0.27 35 1015.6
20260507220105 57 89 0.0 1.7 0.00 0.27 0.27 32 1015.7
20260507214607 57 0 0.9 4.3 0.00 0.27 0.27 31 1016.0
20260507213100 56 94 0.9 2.6 0.00 0.27 0.27 35 1016.1
20260507211603 56 0 0.9 1.7 0.00 0.27 0.27 34 1016.5
20260507210104 56 0 0.0 1.7 0.00 0.27 0.27 35 1016.7
20260507204600 57 23 0.0 4.3 0.00 0.27 0.27 33 1016.9
20260507203100 58 0 0.9 4.3 0.00 0.27 0.27 33 1017.0
20260507201556 58 347 0.9 3.5 0.00 0.27 0.27 33 1017.2
20260507200057 58 18 0.0 4.3 0.00 0.27 0.27 33 1017.1
20260507194557 58 199 0.0 5.2 0.00 0.27 0.27 32 1017.2
20260507193058 59 195 1.7 7.0 0.00 0.27 0.27 31 1017.3
20260507191559 58 186 1.7 8.7 0.00 0.27 0.27 34 1017.5
20260507190059 57 242 3.5 12.2 0.00 0.27 0.27 33 1017.5
20260507184556 58 189 0.0 11.3 0.00 0.27 0.27 35 1017.6
20260507183059 55 231 3.5 13.9 0.00 0.27 0.27 38 1017.6
20260507181559 51 211 4.3 12.2 0.00 0.27 0.27 42 1017.4
20260507174608 49 199 0.0 1.7 0.00 0.27 0.27 51 1018.1
20260507173056 49 0 0.9 1.7 0.01 0.27 0.27 51 1017.9
20260507171611 49 188 0.9 3.5 0.01 0.27 0.27 49 1018.1
20260507170057 50 0 2.6 9.6 0.03 0.27 0.27 45 1018.1
20260507164600 49 206 2.6 7.8 0.05 0.27 0.27 46 1018.2
20260507163100 47 183 2.6 9.6 0.05 0.26 0.26 50 1018.3
20260507161602 46 182 2.6 10.4 0.08 0.26 0.26 51 1018.6
20260507160058 45 261 7.0 13.0 0.08 0.24 0.24 51 1019.1
20260507154601 45 188 2.6 9.6 0.09 0.22 0.22 51 1019.0
20260507153103 44 202 4.3 15.6 0.14 0.21 0.21 54 1018.6
20260507151558 45 302 1.7 4.3 0.16 0.18 0.18 55 1017.9
20260507150110 46 191 0.9 8.7 0.16 0.16 0.16 54 1018.5